AirNav   SIMCOM
 
 546 users online  

6GA0 Stoney Point Airfield
Cumming, Georgia, USA

GOING TO CUMMING?


FAA INFORMATION EFFECTIVE 12 OCTOBER 2017

Location

FAA Identifier: 6GA0
Lat/Long: 34-07-57.3520N / 084-11-57.7050W
34-07.955867N / 084-11.961750W
34.1325978 / -84.1993625
(estimated)
Elevation: 1150 ft. / 351 m (estimated)
Variation: 02W (1985)
From city: 5 miles SW of CUMMING, GA
Time zone: UTC -4 (UTC -5 during Standard Time)
Zip code: 30041

Airport Operations

Airport use: Private use. Permission required prior to landing
Activation date: 09/1979
Control tower: no
ARTCC: ATLANTA CENTER
FSS: MACON FLIGHT SERVICE STATION
Attendance: CONTINUOUS
Wind indicator: yes
Segmented circle: no
Lights: ACTVT MIRL RY 15/33 AND VASI RY 15/33 - 122.725
Beacon: white-green (lighted land airport)
ACTVT BEACON - 122.725

Airport Communications

WX AWOS-3 at LZU (15 nm SE): PHONE 770-339-7753
WX AWOS-3 at CNI (15 nm NW): 119.825 (770-704-6235)
WX ASOS at PDK (16 nm S): PHONE 770-457-1691

Nearby radio navigation aids

VOR radial/distance  VOR name  Freq  Var
PDKr023/16.2PEACHTREE VOR/DME116.6005W
ATLr026/32.4ATLANTA VORTAC116.9005W

 
NDB name  Hdg/Dist  Freq  Var  ID
FLOWERY BRANCH257/15.236503WFKV ..-. -.- ...-
CHERO122/16.041505WDJD -.. .--- -..
CARTERSVILLE101/32.230804WEVZ . ...- --..
BARROW COUNTY296/32.640405WBMW -... -- .--
MONROE319/33.439204WJNM .--- -. --
COMMERCE283/34.024406WDDA -.. -.. .-
ALCOVY328/36.637003WVOF ...- --- ..-.
CALHOUN119/39.532305WOUK --- ..- -.-

Airport Services

Runway Information

Runway 15/33

Dimensions: 2500 x 100 ft. / 762 x 30 m
Surface: turf
Runway edge lights: medium intensity
RUNWAY 15  RUNWAY 33
Traffic pattern: leftleft

Airport Ownership and Management from official FAA records

Ownership: Privately-owned
Owner: STONEY POINT HOMEOWNERS ASSOC.
2144 STONEY POINT RD
CUMMING, GA 30041
Phone 404-787-7472
Manager: JOHN BERNDSEN
2144 STONEY POINT RD
CUMMING, GA 30041
Phone 404-787-7472

Airport Operational Statistics

Aircraft based on the field: 24
Single engine airplanes: 20
Multi engine airplanes: 1
Gliders airplanes: 1
Ultralights: 2
    

Additional Remarks

HANG GLIDER ACTIVITIES INVOF ARPT.

Instrument Procedures

There are no published instrument procedures at 6GA0.

Some nearby airports with instrument procedures:

KLZU - Gwinnett County Airport-Briscoe Field (15 nm SE)
KCNI - Cherokee County Airport (15 nm NW)
KPDK - Dekalb-Peachtree Airport (16 nm S)
KGVL - Lee Gilmer Memorial Airport (20 nm NE)
KMGE - Dobbins Air Reserve Base (20 nm SW)
 
Loc | Ops | Rwys | IFR | FBO | Links
Com | Nav | Svcs | Stats | Notes


 
Area around 6GA0 (Stoney Point Airfield)
 
Road maps at: MapQuest Bing Google
 
Aerial photo
WARNING: Photo may not be current or correct
Aerial photo of 6GA0 (Stoney Point Airfield)
Photo by AirNav, LLC
Photo taken 18-Oct-2010
looking south.

Do you have a better or more recent aerial photo of Stoney Point Airfield that you would like to share? If so, please send us your photo.

 
Sectional chart

 
Airport distance calculator
Flying to Stoney Point Airfield? Find the distance to fly.

From to 6GA0

Sunrise and sunset
Times for 19-Oct-2017
 Local
(UTC-4)
 Zulu
(UTC)
Morning civil twilight07:2111:21
Sunrise07:4611:46
Sunset18:5722:57
Evening civil twilight19:2323:23

Current date and time
Zulu (UTC)  19-Oct-2017 04:43:17
Local (UTC-4)  19-Oct-2017 00:43:17
 
METAR
KLZU 
15nm SE 
190356Z AUTO 00000KT 10SM CLR 08/07 RMK AO2 SLPNO T00830067 TSNO $
KCNI 
15nm NW 
190415Z AUTO 00000KT 10SM CLR 11/09 A3032 RMK AO2
KPDK 
16nm S 
190353Z AUTO 08003KT 10SM CLR 11/07 A3030 RMK AO2 SLP260 T01060067
KGVL 
20nm NE 
190353Z AUTO 03005KT 10SM CLR 10/07 A3033 RMK AO2 SLP267 T01000072
KMGE 
20nm SW 
190356Z AUTO 00000KT 10SM CLR 10/08 A3030 RMK AO2 SLP260 T01030075 $
KRYY 
21nm W 
190348Z AUTO 05003KT 10SM CLR 12/08 A3031 RMK AO2 SLP983 T01220083 402170067
KJZP 
23nm NW 
190415Z AUTO 16007KT 10SM CLR 12/07 A3034 RMK AO2 T01170070 PNO
KFTY 
26nm SW 
190353Z 00000KT 10SM CLR 09/09 A3030 RMK AO2 SLP257 T00940089
KWDR 
28nm E 
190415Z AUTO 00000KT 10SM CLR 10/07 A3034 RMK AO1
TAF
KPDK 
16nm S 
181736Z 1818/1918 08006KT P6SM SKC FM190300 08003KT P6SM SKC
NOTAMs
Click for the latest NOTAMs
NOTAMs are issued by the DoD/FAA and will open in a separate window not controlled by AirNav.

 

 
 

Would you like to see your business listed on this page?

 If your business provides an interesting product or service to pilots, flight crews, aircraft, or users of the Stoney Point Airfield, you should consider listing it here.  To start the listing process, click on the button below
 
Add a business
 

Other Pages about Stoney Point Airfield

www.sphoa.com
 
Update a link
 
Copyright © AirNav, LLC. All rights reserved. Privacy Policy  Contact